Weather History for KAPC - March, 2013

Change the Weather History Date:

Saturday, March 2, 2013

  Actual Average Record
Temperature  
Mean Temperature 58 °F 51 °F  
Max Temperature 71 °F 62 °F 71 °F (2013)
Min Temperature 44 °F 40 °F 30 °F (2007)
Degree Days  
Heating Degree Days 7    
Month to date heating degree days 17  
Since 1 July heating degree days 2222  
Cooling Degree Days 0    
Month to date cooling degree days 0  
Year to date cooling degree days 0  
Growing Degree Days 8 (Base 50)    
Moisture  
Dew Point 49 °F    
Average Humidity 71    
Maximum Humidity 93    
Minimum Humidity 49    
Precipitation  
Precipitation 0.00 in - 1.73 in (1989)
Month to date precipitation 0.00  
Year to date precipitation 0.62  
Since 1 July precipitation 8.41  
Sea Level Pressure  
Sea Level Pressure 30.12 in    
Wind  
Wind Speed 4 mph (SSE)    
Max Wind Speed 13 mph    
Max Gust Speed 17 mph    
Visibility 10 miles    
Events      
T = Trace of Precipitation, MM = Missing Value Source: NWS Daily Summary

Daily Weather History Graph

Daily Weather History Graph

Search for Another Location

Airport or City:

Trip Planner

Search our weather history database for the weather conditions in past years. The results will help you decide how hot, cold, wet, or windy it might be!

Date:

Astronomy

Mar. 02, 2013 Rise Set
Actual Time 6:39 AM PST 6:03 PM PST
Civil Twilight 6:12 AM PST 6:30 PM PST
Nautical Twilight 5:42 AM PST 7:00 PM PST
Astronomical Twilight 5:11 AM PST 7:31 PM PST
Moon 11:43 PM PST (3/2) 9:16 AM PST (3/2)
Length of Visible Light 12h 17m
Length of Day
11h 24m
Waning Gibbous, 73% of the Moon is Illuminated
Mar 2
Waning Gibbous
Mar 4
Last Quarter
Mar 11
New
Mar 19
First Quarter
Mar 27
Full

Hourly Weather History & Observations

Time (PST) Temp. Dew Point Humidity Pressure Visibility Wind Dir Wind Speed Gust Speed Precip Events Conditions
1:54 AM 46.9 °F 44.1 °F 90% 30.22 in 10.0 mi Calm Calm - N/A   Clear
2:54 AM 46.9 °F 43.0 °F 86% 30.19 in 10.0 mi NNE 3.5 mph - N/A   Clear
4:54 AM 46.0 °F 44.1 °F 93% 30.18 in 10.0 mi Calm Calm - N/A   Clear
5:54 AM 46.9 °F 44.1 °F 90% 30.17 in 10.0 mi Calm Calm - N/A   Clear
6:54 AM 46.0 °F 44.1 °F 93% 30.18 in 10.0 mi Calm Calm - N/A   Clear
7:54 AM 53.1 °F 48.9 °F 86% 30.19 in 10.0 mi North 3.5 mph - N/A   Clear
8:54 AM 57.0 °F 50.0 °F 77% 30.19 in 10.0 mi Calm Calm - N/A   Clear
9:54 AM 61.0 °F 51.1 °F 70% 30.18 in 10.0 mi Calm Calm - N/A   Clear
10:54 AM 63.0 °F 51.1 °F 65% 30.17 in 10.0 mi WSW 4.6 mph - N/A   Clear
11:54 AM 69.1 °F 51.1 °F 53% 30.15 in 10.0 mi ESE 8.1 mph - N/A   Clear
12:54 PM 70.0 °F 50.0 °F 49% 30.11 in 10.0 mi East 9.2 mph - N/A   Clear
1:54 PM 71.1 °F 51.1 °F 49% 30.09 in 10.0 mi East 8.1 mph - N/A   Clear
2:54 PM 69.1 °F 50.0 °F 51% 30.07 in 10.0 mi East 5.8 mph - N/A   Clear
3:54 PM 66.9 °F 53.1 °F 61% 30.06 in 10.0 mi SE 4.6 mph - N/A   Clear
4:54 PM 66.0 °F 54.0 °F 65% 30.04 in 10.0 mi West 5.8 mph - N/A   Clear
5:54 PM 62.1 °F 52.0 °F 70% 30.06 in 10.0 mi West 5.8 mph - N/A   Mostly Cloudy
6:54 PM 57.9 °F 52.0 °F 81% 30.06 in 10.0 mi SE 6.9 mph - N/A   Clear
7:54 PM 57.9 °F 51.1 °F 78% 30.06 in 10.0 mi SSW 5.8 mph - N/A   Partly Cloudy
8:54 PM 57.0 °F 52.0 °F 83% 30.07 in 10.0 mi SSW 6.9 mph - N/A   Mostly Cloudy
9:54 PM 55.0 °F 50.0 °F 83% 30.08 in 10.0 mi South 4.6 mph - N/A   Scattered Clouds
10:54 PM 55.0 °F 50.0 °F 83% 30.07 in 10.0 mi South 8.1 mph - N/A   Overcast
11:54 PM 54.0 °F 50.0 °F 86% 30.06 in 10.0 mi South 6.9 mph - N/A   Overcast